User: anonymous   Login
Location: Hancock Field Station
(44.9202°N, 120.4259°W)
Time: 23:52:45
(UTC-07:00)
Language:

Nadezhda 4 Rocket - Orbit

View from above orbital plane
View from above orbital plane
View from above satellite
View from above satellite

Ground track
Ground track

The orbit data is extracted from the following two-line orbital elements,

1 23180U 94041B   16205.08801946 -.00000019  00000-0 -34654-4 0  9990
2 23180  82.9460 175.9212 0030378  68.3184 340.0117 13.77926764107582
Epoch (UTC): 23 July 2016 02:06:44
Eccentricity: 0.0030378
inclination: 82.9460°
perigee height: 949 km
apogee height: 993 km
right ascension of ascending node: 175.9212°
argument of perigee: 68.3184°
revolutions per day: 13.77926764
mean anomaly at epoch: 340.0117°
orbit number at epoch: 10758

The dashed part of the orbit path shows where the satellite is in the earth's shadow,  

DLR